TimePDT,TemperatureF,Dew PointF,Humidity,Sea Level PressureIn,VisibilityMPH,Wind Direction,Wind SpeedMPH,Gust SpeedMPH,PrecipitationIn,Events,Conditions,WindDirDegrees,DateUTC
12:53 AM,48.9,39.0,69,29.97,10.0,West,3.5,-,N/A,,Clear,280,2013-05-24 07:53:00
1:53 AM,51.1,39.0,63,29.97,10.0,Calm,Calm,-,N/A,,Clear,0,2013-05-24 08:53:00
2:53 AM,46.9,39.0,74,29.96,10.0,Calm,Calm,-,N/A,,Clear,0,2013-05-24 09:53:00
3:53 AM,42.1,39.0,89,29.95,9.0,Calm,Calm,-,N/A,,Clear,0,2013-05-24 10:53:00
4:53 AM,42.1,37.9,85,29.95,10.0,Calm,Calm,-,N/A,,Clear,0,2013-05-24 11:53:00
5:53 AM,41.0,37.0,86,29.96,8.0,Calm,Calm,-,N/A,,Clear,0,2013-05-24 12:53:00
6:53 AM,43.0,39.9,89,29.97,8.0,Calm,Calm,-,N/A,,Clear,0,2013-05-24 13:53:00
7:53 AM,51.1,41.0,68,29.97,9.0,Calm,Calm,-,N/A,,Clear,0,2013-05-24 14:53:00
8:53 AM,55.9,41.0,57,29.98,10.0,Calm,Calm,-,N/A,,Clear,0,2013-05-24 15:53:00
9:53 AM,61.0,41.0,48,29.97,10.0,NW,3.5,-,N/A,,Clear,320,2013-05-24 16:53:00
10:23 AM,62.6,41.0,45,29.98,10.0,SW,3.5,-,N/A,,Clear,230,2013-05-24 17:23:00
10:53 AM,64.0,42.1,45,29.97,10.0,Variable,4.6,-,N/A,,Clear,0,2013-05-24 17:53:00
11:53 AM,69.1,41.0,36,29.97,10.0,Calm,Calm,-,N/A,,Clear,0,2013-05-24 18:53:00
12:53 PM,71.1,37.9,30,29.95,10.0,Calm,Calm,-,N/A,,Clear,0,2013-05-24 19:53:00
1:53 PM,73.9,36.0,25,29.94,10.0,SSE,9.2,-,N/A,,Clear,150,2013-05-24 20:53:00
2:53 PM,73.9,39.9,29,29.92,10.0,South,10.4,-,N/A,,Clear,170,2013-05-24 21:53:00
3:53 PM,75.0,42.1,31,29.91,10.0,SW,6.9,-,N/A,,Clear,220,2013-05-24 22:53:00
4:53 PM,75.0,39.9,28,29.89,10.0,SSW,9.2,-,N/A,,Scattered Clouds,200,2013-05-24 23:53:00
5:53 PM,73.0,43.0,34,29.88,10.0,SSW,9.2,-,N/A,,Clear,210,2013-05-25 00:53:00
6:53 PM,72.0,35.1,26,29.88,10.0,NE,9.2,-,N/A,,Clear,40,2013-05-25 01:53:00
7:53 PM,66.0,42.1,42,29.89,10.0,Calm,Calm,-,N/A,,Clear,0,2013-05-25 02:53:00
8:53 PM,57.0,43.0,59,29.90,10.0,South,8.1,-,N/A,,Clear,170,2013-05-25 03:53:00
9:53 PM,54.0,43.0,66,29.92,9.0,SSW,3.5,-,N/A,,Clear,200,2013-05-25 04:53:00
10:53 PM,52.0,43.0,71,29.93,9.0,South,6.9,-,N/A,,Clear,180,2013-05-25 05:53:00
11:53 PM,50.0,42.1,74,29.94,9.0,SSE,3.5,-,N/A,,Clear,160,2013-05-25 06:53:00